sat.trackr.live / text

‹ back to catalog

STARLINK-35940

NORAD 66617 · 2025-271A

PAYLOAD ACTIVE UNKNOWN

§ Identity

Operator
Country
US
Launch date
2025-11-23
Launch site
AFWTR
Launch vehicle
Mass (kg)
RCS (m²)

Purposes: comms

External: N2YO · Heavens-Above · Gunter

§ Orbital elements

Epoch: 2026-05-24T17:00:03.339072Z

Period
94.11 min
Inclination
53.1556°
Eccentricity
0.0001072
Mean motion
15.30201658 rev/d
Perigee alt
474.5 km
Apogee alt
475.9 km
Semi-major
6,853.3 km
B*
3.9632e-4
RAAN
146.9696°
Arg perigee
91.2285°
Mean anomaly
268.8838°
Rev number
2,920

§ Raw data

STARLINK-359401 66617U 25271A   26144.70837198  .00011397  00000+0  39632-3 0  99992 66617  53.1556 146.9696 0001072  91.2285 268.8838 15.30201658 29208

JSON: /api/v1/satellites/66617 · /tle

For live sub-satellite position, see the globe view (requires WebGL).

§ Visibility from observer

Set your observer location to see the next 7 days of passes ≥ 10°. The values pass through the URL so the page stays shareable.

No JS? Fill the form by hand. The geolocation button needs JavaScript.